Knoxville, IA

1:27 AM CDT on August 27, 2016 (GMT -0500)
Knoxville Municipal

Weather History for KOXV - March, 2013

Change the Weather History Date:

Tuesday, March 12, 2013

  Actual Average Record
Temperature  
Mean Temperature 27 °F -  
Max Temperature 33 °F 48 °F 79 °F (1990)
Min Temperature 21 °F 28 °F -5 °F (1998)
Degree Days  
Heating Degree Days 38    
Moisture  
Dew Point 21 °F    
Average Humidity 76    
Maximum Humidity 86    
Minimum Humidity 60    
Precipitation  
Precipitation 0.00 in - - ()
Sea Level Pressure  
Sea Level Pressure 30.06 in    
Wind  
Wind Speed 15 mph (WNW)    
Max Wind Speed 29 mph    
Max Gust Speed 38 mph    
Visibility 10 miles    
Events Snow    
Averages and records for this station are not official NWS values.
T = Trace of Precipitation, MM = Missing Value Source: NWS Daily Summary

Daily Weather History Graph

Daily Weather History Graph

Search for Another Location

Airport or City:

Trip Planner

Search our weather history database for the weather conditions in past years. The results will help you decide how hot, cold, wet, or windy it might be!

Date:

Astronomy

Mar. 12, 2013 Rise Set
Actual Time 7:28 AM CDT 7:16 PM CDT
Civil Twilight 7:01 AM CDT 7:43 PM CDT
Nautical Twilight 6:29 AM CDT 8:15 PM CDT
Astronomical Twilight 5:56 AM CDT 8:48 PM CDT
Moon 7:34 AM CDT (3/12) 8:33 PM CDT (3/12)
Length of Visible Light 12h 42m
Length of Day
11h 47m
New Moon, 1% of the Moon is Illuminated
Mar 12
New Moon
Mar 19
First Quarter
Mar 27
Full
Apr 2
Last Quarter
Apr 10
New

Hourly Weather History & Observations

Time (CDT) Temp. Windchill Dew Point Humidity Pressure Visibility Wind Dir Wind Speed Gust Speed Precip Events Conditions
12:15 AM 24.8 °F 14.6 °F 19.4 °F 80% 29.93 in 10.0 mi West 10.4 mph - N/A   Clear
12:35 AM 24.8 °F 14.6 °F 19.4 °F 80% 29.94 in 10.0 mi West 10.4 mph - N/A   Clear
12:55 AM 24.8 °F 11.9 °F 19.4 °F 80% 29.95 in 10.0 mi West 16.1 mph - N/A   Clear
1:15 AM 24.8 °F 12.9 °F 19.4 °F 80% 29.95 in 10.0 mi West 13.8 mph - N/A   Clear
1:35 AM 24.8 °F 13.4 °F 19.4 °F 80% 29.95 in 10.0 mi West 12.7 mph - N/A   Clear
1:55 AM 24.8 °F 14.0 °F 19.4 °F 80% 29.96 in 10.0 mi West 11.5 mph - N/A   Scattered Clouds
2:15 AM 24.8 °F 14.6 °F 19.4 °F 80% 29.97 in 10.0 mi West 10.4 mph - N/A   Scattered Clouds
2:35 AM 24.8 °F 14.6 °F 19.4 °F 80% 29.96 in 10.0 mi West 10.4 mph - N/A   Clear
2:55 AM 23.0 °F 13.1 °F 17.6 °F 80% 29.96 in 10.0 mi West 9.2 mph - N/A   Clear
3:15 AM 23.0 °F 12.4 °F 17.6 °F 80% 29.96 in 10.0 mi West 10.4 mph - N/A   Clear
3:35 AM 23.0 °F 11.1 °F 17.6 °F 80% 29.96 in 10.0 mi West 12.7 mph - N/A   Clear
3:55 AM 23.0 °F 11.1 °F 17.6 °F 80% 29.96 in 10.0 mi West 12.7 mph - N/A   Clear
4:15 AM 23.0 °F 10.6 °F 17.6 °F 80% 29.96 in 10.0 mi WNW 13.8 mph - N/A   Clear
4:35 AM 23.0 °F 11.7 °F 17.6 °F 80% 29.97 in 10.0 mi WNW 11.5 mph - N/A   Clear
4:55 AM 21.2 °F 10.9 °F 17.6 °F 86% 29.97 in 10.0 mi West 9.2 mph - N/A   Clear
5:15 AM 21.2 °F 12.6 °F 17.6 °F 86% 29.98 in 10.0 mi West 6.9 mph - N/A   Clear
5:35 AM 21.2 °F 11.7 °F 17.6 °F 86% 29.97 in 10.0 mi West 8.1 mph - N/A   Clear
5:55 AM 21.2 °F 11.7 °F 17.6 °F 86% 29.98 in 10.0 mi West 8.1 mph - N/A   Clear
6:15 AM 21.2 °F 10.1 °F 17.6 °F 86% 29.99 in 10.0 mi West 10.4 mph - N/A   Clear
6:35 AM 21.2 °F 10.9 °F 17.6 °F 86% 29.99 in 10.0 mi West 9.2 mph - N/A   Clear
6:55 AM 21.2 °F 10.9 °F 17.6 °F 86% 29.99 in 10.0 mi West 9.2 mph - N/A   Clear
7:15 AM 21.2 °F 11.7 °F 17.6 °F 86% 29.99 in 10.0 mi WSW 8.1 mph - N/A   Clear
7:35 AM 21.2 °F 9.5 °F 17.6 °F 86% 30.00 in 10.0 mi West 11.5 mph - N/A   Clear
7:55 AM 23.0 °F 13.1 °F 17.6 °F 80% 30.00 in 10.0 mi West 9.2 mph - N/A   Clear
8:35 AM 24.8 °F 16.1 °F 19.4 °F 80% 30.00 in 10.0 mi WSW 8.1 mph - N/A   Overcast
8:55 AM 26.6 °F 16.2 °F 21.2 °F 80% 30.01 in 10.0 mi WSW 11.5 mph - N/A   Overcast
9:15 AM 26.6 °F 17.5 °F 21.2 °F 80% 30.01 in 10.0 mi WSW 9.2 mph - N/A   Mostly Cloudy
9:35 AM 28.4 °F 18.5 °F 23.0 °F 80% 30.02 in 10.0 mi WSW 11.5 mph - N/A   Overcast
9:55 AM 30.2 °F 18.9 °F 24.8 °F 80% 30.02 in 10.0 mi West 16.1 mph - N/A   Overcast
10:15 AM 30.2 °F 19.3 °F 24.8 °F 80% 30.03 in 10.0 mi West 15.0 mph - N/A   Overcast
10:35 AM 30.2 °F 19.3 °F 24.8 °F 80% 30.03 in 10.0 mi West 15.0 mph - N/A   Overcast
10:55 AM 30.2 °F 19.8 °F 24.8 °F 80% 30.04 in 7.0 mi WNW 13.8 mph 24.2 mph N/A Snow Light Snow
11:15 AM 32.0 °F 21.2 °F 26.6 °F 80% 30.04 in 10.0 mi WNW 16.1 mph 27.6 mph N/A Snow Light Snow
11:35 AM 33.8 °F 21.6 °F 26.6 °F 75% 30.04 in 10.0 mi WNW 23.0 mph 27.6 mph N/A   Overcast
11:55 AM 33.8 °F 21.3 °F 26.6 °F 75% 30.04 in 10.0 mi WNW 24.2 mph 31.1 mph N/A   Mostly Cloudy
12:15 PM 33.8 °F 20.8 °F 26.6 °F 75% 30.05 in 10.0 mi West 26.5 mph 32.2 mph N/A   Overcast
12:35 PM 33.8 °F 21.6 °F 26.6 °F 75% 30.06 in 10.0 mi West 23.0 mph - N/A   Overcast
12:55 PM 32.0 °F 18.9 °F 26.6 °F 80% 30.06 in 10.0 mi WNW 24.2 mph 32.2 mph N/A   Overcast
1:15 PM 32.0 °F 19.5 °F 26.6 °F 80% 30.07 in 10.0 mi West 21.9 mph 27.6 mph N/A   Overcast
1:35 PM 33.8 °F 22.5 °F 24.8 °F 70% 30.07 in 10.0 mi WNW 19.6 mph 28.8 mph N/A   Overcast
1:55 PM 33.8 °F 21.6 °F 26.6 °F 75% 30.07 in 10.0 mi WNW 23.0 mph 31.1 mph N/A   Overcast
2:15 PM 33.8 °F 21.3 °F 24.8 °F 70% 30.07 in 10.0 mi WNW 24.2 mph 34.5 mph N/A   Overcast
2:35 PM 32.0 °F 19.5 °F 24.8 °F 75% 30.08 in 10.0 mi WNW 21.9 mph 34.5 mph N/A   Overcast
2:55 PM 32.0 °F 17.9 °F 24.8 °F 75% 30.07 in 10.0 mi WNW 28.8 mph 35.7 mph N/A Snow Light Snow
3:15 PM 32.0 °F 19.8 °F 24.8 °F 75% 30.08 in 7.0 mi West 20.7 mph 27.6 mph N/A Snow Light Snow
3:35 PM 32.0 °F 20.1 °F 23.0 °F 69% 30.08 in 10.0 mi WNW 19.6 mph 33.4 mph N/A   Overcast
3:55 PM 32.0 °F 18.6 °F 23.0 °F 69% 30.08 in 7.0 mi West 25.3 mph 33.4 mph N/A Snow Light Snow
4:15 PM 30.2 °F 16.2 °F 24.8 °F 80% 30.10 in 4.0 mi WNW 25.3 mph 35.7 mph N/A Snow Light Snow
4:35 PM 30.2 °F 16.5 °F 24.8 °F 80% 30.11 in 2.0 mi NW 24.2 mph 29.9 mph N/A Snow Light Snow
4:55 PM 28.4 °F 15.1 °F 23.0 °F 80% 30.12 in 5.0 mi WNW 20.7 mph 26.5 mph N/A Snow Light Snow
5:15 PM 30.2 °F 19.3 °F 23.0 °F 75% 30.12 in 10.0 mi NW 15.0 mph 23.0 mph N/A Snow Light Snow
5:35 PM 30.2 °F 15.7 °F 19.4 °F 64% 30.12 in 10.0 mi WNW 27.6 mph 34.5 mph N/A   Mostly Cloudy
5:55 PM 30.2 °F 16.2 °F 17.6 °F 60% 30.13 in 10.0 mi WNW 25.3 mph 35.7 mph N/A   Mostly Cloudy
6:15 PM 28.4 °F 13.8 °F 17.6 °F 64% 30.14 in 10.0 mi NW 25.3 mph 38.0 mph N/A   Overcast
6:35 PM 28.4 °F 13.5 °F 17.6 °F 64% 30.15 in 10.0 mi WNW 26.5 mph 32.2 mph N/A   Overcast
6:55 PM 28.4 °F 15.8 °F 19.4 °F 69% 30.15 in 10.0 mi WNW 18.4 mph 23.0 mph N/A   Overcast
7:15 PM 28.4 °F 14.1 °F 17.6 °F 64% 30.16 in 10.0 mi NW 24.2 mph 28.8 mph N/A   Overcast
7:35 PM 28.4 °F 15.4 °F 17.6 °F 64% 30.17 in 10.0 mi NW 19.6 mph 28.8 mph N/A   Overcast
7:55 PM 26.6 °F 11.7 °F 19.4 °F 74% 30.17 in 10.0 mi WNW 24.2 mph 31.1 mph N/A   Overcast
8:15 PM 26.6 °F 13.4 °F 19.4 °F 74% 30.18 in 10.0 mi WNW 18.4 mph 24.2 mph N/A   Overcast
8:35 PM 26.6 °F 11.7 °F 17.6 °F 69% 30.19 in 10.0 mi WNW 24.2 mph 28.8 mph N/A   Overcast
8:55 PM 26.6 °F 12.0 °F 17.6 °F 69% 30.19 in 10.0 mi WNW 23.0 mph 29.9 mph N/A   Overcast
9:15 PM 26.6 °F 13.8 °F 17.6 °F 69% 30.20 in 10.0 mi NW 17.3 mph 23.0 mph N/A   Overcast
9:35 PM 26.6 °F 13.1 °F 17.6 °F 69% 30.20 in 10.0 mi WNW 19.6 mph 24.2 mph N/A   Mostly Cloudy
9:55 PM 26.6 °F 14.3 °F 17.6 °F 69% 30.21 in 10.0 mi WNW 16.1 mph 21.9 mph N/A   Scattered Clouds
10:15 PM 26.6 °F 13.1 °F 17.6 °F 69% 30.21 in 10.0 mi WNW 19.6 mph 23.0 mph N/A   Scattered Clouds
10:35 PM 26.6 °F 15.2 °F 17.6 °F 69% 30.21 in 10.0 mi WNW 13.8 mph 21.9 mph N/A   Mostly Cloudy
10:55 PM 26.6 °F 13.8 °F 17.6 °F 69% 30.22 in 10.0 mi WNW 17.3 mph 24.2 mph N/A   Mostly Cloudy
11:15 PM 26.6 °F 14.7 °F 15.8 °F 64% 30.22 in 10.0 mi NW 15.0 mph 27.6 mph N/A   Overcast
11:35 PM 26.6 °F 12.7 °F 17.6 °F 69% 30.22 in 10.0 mi NW 20.7 mph 27.6 mph N/A Snow Light Snow
11:55 PM 24.8 °F 11.5 °F 17.6 °F 74% 30.23 in 10.0 mi NW 17.3 mph 26.5 mph N/A   Overcast